Weather History for El Arish, Egypt

Change the Weather History Date:

Saturday, February 8, 2014

  Actual Average Record
Temperature  
Mean Temperature 54 °F -  
Max Temperature 65 °F 68 °F - ()
Min Temperature 42 °F 47 °F - ()
Degree Days  
Heating Degree Days 12    
Growing Degree Days 4 (Base 50)    
Moisture  
Dew Point 41 °F    
Average Humidity 70    
Maximum Humidity 93    
Minimum Humidity 30    
Precipitation  
Precipitation 0.00 in 0.02 in - ()
Sea Level Pressure  
Sea Level Pressure 30.15 in    
Wind  
Wind Speed 3 mph ()    
Max Wind Speed 8 mph    
Max Gust Speed -    
Visibility 5.3 miles    
Events      
T = Trace of Precipitation, MM = Missing Value Source: Averaged Metar Reports

Daily Weather History Graph

Daily Weather History Graph

Search for Another Location

Airport:

Trip Planner

Search our weather history database for the weather conditions in past years. The results will help you decide how hot, cold, wet, or windy it might be!

Date:

Astronomy

Feb. 08, 2014 Rise Set
Actual Time 6:31 AM EET 5:26 PM EET
Civil Twilight 6:06 AM EET 5:51 PM EET
Nautical Twilight 5:38 AM EET 6:19 PM EET
Astronomical Twilight 5:09 AM EET 6:48 PM EET
Moon 12:10 PM EET (2/8) 1:20 AM EET (2/8)
Length of Visible Light 11h 44m
Length of Day
10h 54m
Waxing Gibbous, 66% of the Moon is Illuminated
Feb 8
Waxing Gibbous
Feb 15
Full
Feb 22
Last Quarter
Mar 1
New
Mar 8
First Quarter

Hourly Weather History & Observations

Time (EET) Temp. Windchill Dew Point Humidity Pressure Visibility Wind Dir Wind Speed Gust Speed Precip Events Conditions
12:00 AM 46.4 °F - 41.0 °F 81% 30.09 in - NNW 2.3 mph - N/A   Clear
1:00 AM 46.4 °F - 41.0 °F 81% 30.09 in - ENE 2.3 mph - N/A   Clear
2:00 AM 48 °F - 42 °F 75% 30.12 in 6 mi SE 4.6 mph - -  
2:00 AM 48.2 °F - 42.8 °F 82% 30.09 in - SE 4.6 mph - N/A   Clear
3:00 AM 44.6 °F 43.1 °F 41.0 °F 87% 30.09 in - ESE 3.5 mph - N/A   Clear
4:00 AM 42.8 °F 41.1 °F 41.0 °F 93% 30.09 in - SSE 3.5 mph - N/A   Clear
5:00 AM 43 °F - 41 °F 90% 30.13 in 4 mi ESE 2.3 mph - -   Mist
5:00 AM 42.8 °F - 41.0 °F 93% 30.12 in 3.7 mi ESE 2.3 mph - N/A   Unknown
6:00 AM 44.6 °F 43.1 °F 42.8 °F 93% 30.12 in 3.7 mi SE 3.5 mph - N/A   Mostly Cloudy
7:00 AM 46.4 °F 44.3 °F 42.8 °F 87% 30.15 in 3.7 mi SE 4.6 mph - N/A   Scattered Clouds
9:00 AM 59.0 °F - 39.2 °F 48% 30.18 in 6.2 mi SE 8.1 mph - N/A   Partly Cloudy
10:00 AM 60.8 °F - 39.2 °F 45% 30.18 in - East 8.1 mph - N/A   Clear
2:00 PM 64 °F - 40 °F 30% 30.16 in 6 mi North 8.1 mph - -   Scattered Clouds
2:00 PM 64.4 °F - 41.0 °F 42% 30.15 in 6.2 mi North 8.1 mph - N/A   Partly Cloudy
3:00 PM 64.4 °F - 39.2 °F 40% 30.15 in 6.2 mi NW 4.6 mph - N/A   Partly Cloudy
5:00 PM 60 °F - 42 °F 41% 30.17 in 6 mi NNW 4.6 mph - -  
6:00 PM 57.2 °F - 42.8 °F 59% 30.15 in - NW 4.6 mph - N/A   Clear
7:00 PM 53.6 °F - 41.0 °F 62% 30.18 in - North 2.3 mph - N/A   Clear
8:00 PM 50 °F - 41 °F 63% 30.20 in 6 mi NNW 2.3 mph - -  
8:00 PM 50.0 °F - 41.0 °F 71% 30.18 in - NNW 2.3 mph - N/A   Clear
9:00 PM 48.2 °F - 41.0 °F 76% 30.18 in - SSE 2.3 mph - N/A   Clear
10:00 PM 48.2 °F - 41.0 °F 76% 30.21 in - Calm Calm - N/A   Clear
11:00 PM 45 °F - 40 °F 76% 30.21 in 6 mi South 5.8 mph - -  
11:00 PM 44.6 °F 41.4 °F 39.2 °F 81% 30.21 in - South 5.8 mph - N/A   Clear